This demonstration page uses our WeatherBlox Daily Observations layout. Learn more.

Left ArrowRight Arrow

Hourly Observations for September 28, 2018

Temp ( °F °C ) Dew Point ( °F °C ) Humidity (%) Winds ( mph kmh ) Pressure ( in mb ) Visibility ( mi km ) Precip ( " mm )
12:53 am 00:53 Mostly Cloudy with Fog 51 10.6 50 10 96 96 Calm 30.06 1018 0 0 0.00 0.00
1:53 am 01:53 Mostly Cloudy with Fog 52 11.1 50 10 93 93 Calm 30.06 1018 0 0 0.00 0.00
2:53 am 02:53 Mostly Cloudy with Fog 52 11.1 50 10 93 93 Calm 30.07 1018 0 0 0.00 0.00
3:53 am 03:53 Mostly Cloudy with Fog 51 10.6 50 10 96 96 Calm 30.09 1019 0 0 0.00 0.00
4:53 am 04:53 Mostly Cloudy with Fog 50 10 49 9.4 96 96 Calm 30.09 1019 0 0 0.00 0.00
5:53 am 05:53 Mostly Cloudy with Fog 50 10 49 9.4 96 96 Calm 30.11 1020 0 0 0.00 0.00
6:53 am 06:53 Mostly Cloudy with Fog 49 9.4 48 8.9 97 97 Calm 30.13 1020 0 0 0.00 0.00
7:53 am 07:53 Mostly Cloudy with Fog 48 8.9 47 8.3 96 96 Calm 30.14 1021 5 8 0.00 0.00
8:53 am 08:53 Cloudy with Fog 49 9.4 49 9.4 100 100 Calm 30.16 1021 1 1 0.00 0.00
9:01 am 09:01 Mostly Cloudy with Mist and Fog 50 10 49 9.4 96 96 Calm 30.15 1021 2 3 0.00 0.00
9:04 am 09:04 Mostly Cloudy with Mist and Fog 50 10 50 10 100 100 Calm 30.15 1021 3 5 0.00 0.00
9:38 am 09:38 Partly Cloudy with Mist and Fog 53 11.7 52 11.1 96 96 Calm 30.15 1021 6 10 0.00 0.00
9:53 am 09:53 Mostly Sunny 54 12.2 53 11.7 97 97 Calm 30.16 1021 8 13 0.00 0.00
10:53 am 10:53 Sunny 60 15.6 55 12.8 84 84 VRB 3 6 30.17 1022 10 16 0.00 0.00
11:53 am 11:53 Sunny 64 17.8 55 12.8 73 73 SSW 5 7 30.16 1021 10 16 0.00 0.00
12:53 pm 12:53 Sunny 67 19.4 53 11.7 61 61 VRB 5 7 30.16 1021 10 16 0.00 0.00
1:53 pm 13:53 Sunny 69 20.6 50 10 51 51 WSW 6 9 30.15 1021 10 16 0.00 0.00
2:53 pm 14:53 Sunny 70 21.1 48 8.9 46 46 W 8 13 30.13 1020 10 16 0.00 0.00
3:53 pm 15:53 Sunny 72 22.2 48 8.9 43 43 WSW 7 11 30.12 1020 10 16 0.00 0.00
4:53 pm 16:53 Sunny 72 22.2 51 10.6 48 48 WSW 10 17 30.11 1020 10 16 0.00 0.00
5:53 pm 17:53 Sunny 71 21.7 52 11.1 51 51 SSW 6 9 30.12 1020 10 16 0.00 0.00
6:53 pm 18:53 Sunny 68 20 53 11.7 59 59 SW 6 9 30.13 1020 10 16 0.00 0.00
7:53 pm 19:53 Clear with Light Rain 59 15 55 12.8 87 87 Calm 30.15 1021 10 16 0.00 0.03
8:53 pm 20:53 Clear 56 13.3 53 11.7 90 90 Calm 30.17 1022 10 16 0.00 0.03
9:53 pm 21:53 Clear 55 12.8 52 11.1 90 90 Calm 30.18 1022 10 16 0.00 0.00
10:53 pm 22:53 Clear 54 12.2 51 10.6 90 90 Calm 30.19 1022 10 16 0.00 0.00
11:53 pm 23:53 Clear 53 11.7 50 10 89 89 Calm 30.20 1023 10 16 0.00 0.00

Powered by AerisWeather